sat.trackr.live / text

‹ back to catalog

RAY 1.0

NORAD 62627 · 2025-009U

PAYLOAD ACTIVE UNKNOWN

§ Identity

Operator
Country
US
Launch date
2025-01-14
Launch site
AFWTR
Launch vehicle
Mass (kg)
RCS (m²)

External: N2YO · Heavens-Above · Gunter

§ Orbital elements

Epoch: 2026-09-22T20:22:11.050464Z

Period
94.66 min
Inclination
97.3918°
Eccentricity
0.0007173
Mean motion
15.21222676 rev/d
Perigee alt
497.2 km
Apogee alt
507.1 km
Semi-major
6,880.3 km
B*
9.1293e-5
RAAN
342.4040°
Arg perigee
299.5152°
Mean anomaly
60.5368°
Rev number
9,352

§ Raw data

RAY 1.01 62627U 25009U   26265.84873901  .00001969  00000+0  91293-4 0  99922 62627  97.3918 342.4040 0007173 299.5152  60.5368 15.21222676 93521

JSON: /api/v1/satellites/62627 · /tle

For live sub-satellite position, see the globe view (requires WebGL).

§ Visibility from observer

Set your observer location to see the next 7 days of passes ≥ 10°. The values pass through the URL so the page stays shareable.

No JS? Fill the form by hand. The geolocation button needs JavaScript.

§ Radio — SatNOGS DB

ModeDescriptionDownlinkUplink
FM Mode S - Transmitter 0.002 MHz

1 transmitter · refreshed weekly from db.satnogs.org